LRFT Weather Reports


time (UTC)temp
F
wind
direction
speed
knots
gust
knots
rain 1hr
in
rain 24hr
in
rain mn
in
humidity
%
barometer
mb
20260507094900 0 0.0 0.0 0.00 0.00 0.00
20260507093400 0 0.0 0.0 0.00 0.00 0.00
20260507091901 0 0.0 0.0 0.00 0.00 0.00
20260507090400 0 0.0 0.0 0.00 0.00 0.00
20260507084900 63 140 12.2 0.0 0.00 0.00 0.00 68 1017.0
20260507083400 63 140 12.2 0.0 0.00 0.00 0.00 68 1017.0
20260507081900 63 140 12.2 0.0 0.00 0.00 0.00 68 1017.0
20260507080400 63 140 12.2 0.0 0.00 0.00 0.00 68 1017.0
20260507074900 57 140 9.6 0.0 0.00 0.00 0.00 77 1018.0
20260507073359 57 140 9.6 0.0 0.00 0.00 0.00 77 1018.0
20260507071900 57 140 9.6 0.0 0.00 0.00 0.00 77 1018.0
20260507070359 57 140 9.6 0.0 0.00 0.00 0.00 77 1018.0
20260507064900 52 140 7.8 0.0 0.00 0.00 0.00 88 1018.0
20260507063400 52 140 7.8 0.0 0.00 0.00 0.00 88 1018.0
20260507061909 52 140 7.8 0.0 0.00 0.00 0.00 88 1018.0
20260507060400 52 140 7.8 0.0 0.00 0.00 0.00 88 1018.0
20260507054900 41 110 5.2 0.0 0.00 0.00 0.00 100 1017.0
20260507053407 41 110 5.2 0.0 0.00 0.00 0.00 100 1017.0
20260507051900 41 110 5.2 0.0 0.00 0.00 0.00 100 1017.0
20260507050359 0 0.0 0.0 0.00 0.00 0.00
20260507044853 41 110 7.8 0.0 0.00 0.00 0.00 100 1017.0
20260507043359 41 110 7.8 0.0 0.00 0.00 0.00 100 1017.0
20260507041900 41 110 7.8 0.0 0.00 0.00 0.00 100 1017.0
20260507040359 41 110 7.8 0.0 0.00 0.00 0.00 100 1017.0
20260507034856 41 110 7.8 0.0 0.00 0.00 0.00 100 1017.0
20260507033359 0 0.0 0.0 0.00 0.00 0.00
20260507031856 0 0.0 0.0 0.00 0.00 0.00
20260507030359 0 0.0 0.0 0.00 0.00 0.00
20260507024856 43 110 5.2 0.0 0.00 0.00 0.00 100 1017.0
20260507023359 43 110 5.2 0.0 0.00 0.00 0.00 100 1017.0
20260507021900 0 0.0 0.0 0.00 0.00 0.00
20260507020359 0 0.0 0.0 0.00 0.00 0.00
20260507014859 45 110 5.2 0.0 0.00 0.00 0.00 100 1017.0
20260507013359 45 110 5.2 0.0 0.00 0.00 0.00 100 1017.0
20260507011859 45 110 5.2 0.0 0.00 0.00 0.00 100 1017.0
20260507010400 45 110 5.2 0.0 0.00 0.00 0.00 100 1017.0
20260507004859 45 110 5.2 0.0 0.00 0.00 0.00 100 1017.0
20260507003400 45 110 5.2 0.0 0.00 0.00 0.00 100 1017.0
20260507001859 45 110 5.2 0.0 0.00 0.00 0.00 100 1017.0
20260507000359 45 110 5.2 0.0 0.00 0.00 0.00 100 1017.0
20260506234859 45 110 5.2 0.0 0.00 0.00 0.00 100 1017.0
20260506233359 45 110 5.2 0.0 0.00 0.00 0.00 100 1017.0
20260506231857 45 110 5.2 0.0 0.00 0.00 0.00 100 1017.0
20260506230359 45 110 5.2 0.0 0.00 0.00 0.00 100 1017.0
20260506224856 46 110 6.1 0.0 0.00 0.00 0.00 100 1017.0
20260506223359 46 110 6.1 0.0 0.00 0.00 0.00 100 1017.0
20260506221859 46 110 6.1 0.0 0.00 0.00 0.00 100 1017.0
20260506220359 0 0.0 0.0 0.00 0.00 0.00
20260506214912 46 110 7.8 0.0 0.00 0.00 0.00 100 1016.0
20260506213400 46 110 7.8 0.0 0.00 0.00 0.00 100 1016.0
20260506211853 46 110 7.8 0.0 0.00 0.00 0.00 100 1016.0
20260506210359 46 110 7.8 0.0 0.00 0.00 0.00 100 1016.0
20260506204900 48 110 7.8 0.0 0.00 0.00 0.00 100 1016.0
20260506203359 48 110 7.8 0.0 0.00 0.00 0.00 100 1016.0
20260506201853 48 110 7.8 0.0 0.00 0.00 0.00 100 1016.0
20260506200359 48 110 7.8 0.0 0.00 0.00 0.00 100 1016.0
20260506194916 52 110 7.8 0.0 0.00 0.00 0.00 94 1016.0
20260506193423 52 110 7.8 0.0 0.00 0.00 0.00 94 1016.0
20260506191900 52 110 7.8 0.0 0.00 0.00 0.00 94 1016.0
20260506190400 52 110 7.8 0.0 0.00 0.00 0.00 94 1016.0
20260506184902 55 110 7.8 0.0 0.00 0.00 0.00 82 1015.0
20260506183359 55 110 7.8 0.0 0.00 0.00 0.00 82 1015.0
20260506181900 55 110 7.8 0.0 0.00 0.00 0.00 82 1015.0
20260506180400 0 0.0 0.0 0.00 0.00 0.00
20260506174900 64 130 7.8 0.0 0.00 0.00 0.00 56 1015.0
20260506173359 64 130 7.8 0.0 0.00 0.00 0.00 56 1015.0
20260506171900 64 130 7.8 0.0 0.00 0.00 0.00 56 1015.0
20260506170359 64 130 7.8 0.0 0.00 0.00 0.00 56 1015.0
20260506164859 68 130 9.6 0.0 0.00 0.00 0.00 49 1015.0
20260506163359 68 130 9.6 0.0 0.00 0.00 0.00 49 1015.0
20260506161900 68 130 9.6 0.0 0.00 0.00 0.00 49 1015.0
20260506160359 68 130 9.6 0.0 0.00 0.00 0.00 49 1015.0
20260506154900 70 140 12.2 0.0 0.00 0.00 0.00 40 1015.0
20260506153359 70 140 12.2 0.0 0.00 0.00 0.00 40 1015.0
20260506151859 70 140 12.2 0.0 0.00 0.00 0.00 40 1015.0
20260506150405 70 140 12.2 0.0 0.00 0.00 0.00 40 1015.0
20260506144900 72 140 12.2 0.0 0.00 0.00 0.00 44 1015.0
20260506143411 72 140 12.2 0.0 0.00 0.00 0.00 44 1015.0
20260506141859 72 140 12.2 0.0 0.00 0.00 0.00 44 1015.0
20260506140523 0 0.0 0.0 0.00 0.00 0.00
20260506134924 70 120 13.9 0.0 0.00 0.00 0.00 43 1015.0
20260506133359 70 120 13.9 0.0 0.00 0.00 0.00 43 1015.0
20260506131856 70 120 13.9 0.0 0.00 0.00 0.00 43 1015.0
20260506130408 70 120 13.9 0.0 0.00 0.00 0.00 43 1015.0
20260506124900 72 130 9.6 0.0 0.00 0.00 0.00 41 1016.0
20260506123359 72 130 9.6 0.0 0.00 0.00 0.00 41 1016.0
20260506121900 72 130 9.6 0.0 0.00 0.00 0.00 41 1016.0
20260506120359 72 130 9.6 0.0 0.00 0.00 0.00 41 1016.0
20260506114859 70 150 9.6 0.0 0.00 0.00 0.00 50 1016.0
20260506113400 70 150 9.6 0.0 0.00 0.00 0.00 50 1016.0
20260506111859 70 150 9.6 0.0 0.00 0.00 0.00 50 1016.0
20260506110359 70 150 9.6 0.0 0.00 0.00 0.00 50 1016.0
20260506104859 70 120 12.2 0.0 0.00 0.00 0.00 43 1017.0
20260506103400 70 120 12.2 0.0 0.00 0.00 0.00 43 1017.0
20260506101900 70 120 12.2 0.0 0.00 0.00 0.00 43 1017.0
20260506100400 70 120 12.2 0.0 0.00 0.00 0.00 43 1017.0